contact:dominique.lefevre@mio.osupytheas.fr, maurice.libes@osupytheas.fr
Project:EMSO Ligure-ouest http://www.emso-fr.org/EMSO-France
Sensor Aquadopp, line 13 Serial AQD14315 
DOI : "https://doi.org/10.17882/74513; https://doi.org/10.17882/83244" 
Title:EMSO Ligure Ouest : Data ligne ALBATROSS capteur AQUADOPP - deploiement 2021
Id,Date,Profondeur,Latitude,Longitude,X_East,Y_North,Z_Up,Amplitude_X,Amplitude_Y,Amplitude_Z,Batterie,SoundSpeed,Heading,Pitch,Roll,Pressure,Temperature,Speed,Direction
, , m, degrees North, degrees East, m.s-1, m.s-1,m.s-1, 1, 1, 1, Volt, m.s-1, degree, degree, degree, dbar, degree_C, m.s-1, degree
11,2022-03-13T22:00:00,2200.0,42.79,6.0312,0.031,-0.031,-0.006,55.0,58.0,59.0,12.2,1504.3,111.3,-0.4,0.0,2192.782,13.17,0.043,135.0
11,2022-03-13T22:30:00,2200.0,42.79,6.0312,0.031,-0.027,0.003,54.0,60.0,62.0,12.2,1504.3,117.5,-0.2,0.0,2192.749,13.17,0.041,131.1
11,2022-03-13T23:00:00,2200.0,42.79,6.0312,0.035,-0.022,0.003,57.0,58.0,60.0,12.2,1504.3,112.9,-0.3,0.0,2192.697,13.17,0.041,122.2
11,2022-03-13T23:30:00,2200.0,42.79,6.0312,0.035,-0.025,0.012,55.0,58.0,58.0,12.2,1504.3,114.6,-0.5,0.1,2192.776,13.17,0.043,125.5
11,2022-03-14T00:00:00,2200.0,42.79,6.0312,0.04,-0.012,0.0,55.0,57.0,59.0,12.2,1504.3,108.7,-0.4,0.3,2192.829,13.17,0.041,106.7
11,2022-03-14T00:30:00,2200.0,42.79,6.0312,0.029,-0.022,-0.001,56.0,57.0,60.0,12.2,1504.3,114.0,-0.2,0.1,2192.79,13.17,0.036,127.2
11,2022-03-14T01:00:00,2200.0,42.79,6.0312,0.027,-0.019,0.003,55.0,58.0,61.0,12.2,1504.3,122.5,-0.4,0.0,2192.832,13.17,0.033,125.1
11,2022-03-14T01:30:00,2200.0,42.79,6.0312,0.019,-0.012,0.0,56.0,58.0,59.0,12.2,1504.3,121.6,-0.4,0.1,2192.824,13.17,0.022,122.3
11,2022-03-14T02:00:00,2200.0,42.79,6.0312,0.029,-0.009,0.004,55.0,61.0,60.0,12.2,1504.3,129.7,-0.6,0.1,2192.798,13.17,0.03,107.2
11,2022-03-14T02:30:00,2200.0,42.79,6.0312,0.027,-0.028,0.005,56.0,60.0,58.0,12.2,1504.3,123.2,-0.5,0.3,2192.813,13.17,0.038,136.0
11,2022-03-14T03:00:00,2200.0,42.79,6.0312,0.034,-0.011,0.001,53.0,59.0,60.0,12.2,1504.3,124.6,-0.2,0.1,2192.908,13.17,0.035,107.9
11,2022-03-14T03:30:00,2200.0,42.79,6.0312,0.029,-0.014,0.006,56.0,58.0,59.0,12.2,1504.3,123.5,-0.4,0.2,2192.865,13.17,0.032,115.8
11,2022-03-14T04:00:00,2200.0,42.79,6.0312,0.034,-0.009,0.007,56.0,59.0,59.0,12.2,1504.3,119.6,-0.4,-0.1,2192.876,13.17,0.035,104.8
11,2022-03-14T04:30:00,2200.0,42.79,6.0312,0.043,-0.027,0.008,59.0,59.0,61.0,12.2,1504.3,121.6,-0.5,0.1,2192.902,13.17,0.05,122.1
11,2022-03-14T05:00:00,2200.0,42.79,6.0312,0.036,-0.028,0.009,56.0,58.0,61.0,12.2,1504.3,123.3,-0.6,0.3,2192.891,13.17,0.045,127.9
11,2022-03-14T05:30:00,2200.0,42.79,6.0312,0.033,-0.031,0.004,55.0,59.0,60.0,12.2,1504.3,118.4,-0.4,-0.1,2192.917,13.17,0.045,133.2
11,2022-03-14T06:00:00,2200.0,42.79,6.0312,0.044,-0.022,-0.009,56.0,57.0,59.0,12.2,1504.3,118.3,-0.7,0.2,2192.94,13.17,0.049,116.6
11,2022-03-14T06:30:00,2200.0,42.79,6.0312,0.042,-0.026,0.02,56.0,58.0,61.0,12.2,1504.3,125.6,-0.3,0.2,2192.937,13.17,0.049,121.8
11,2022-03-14T07:00:00,2200.0,42.79,6.0312,0.039,-0.026,0.015,56.0,60.0,58.0,12.2,1504.3,136.6,-0.5,0.2,2192.927,13.17,0.046,123.7
11,2022-03-14T07:30:00,2200.0,42.79,6.0312,0.024,-0.023,0.022,55.0,59.0,63.0,12.2,1504.3,125.4,-0.6,0.3,2192.903,13.17,0.033,133.8
11,2022-03-14T08:00:00,2200.0,42.79,6.0312,0.037,-0.03,0.007,58.0,59.0,60.0,12.2,1504.3,139.6,-0.6,0.3,2192.902,13.17,0.047,129.0
11,2022-03-14T08:30:00,2200.0,42.79,6.0312,0.013,-0.036,0.009,57.0,60.0,61.0,12.2,1504.3,146.4,-0.5,-0.1,2192.893,13.17,0.038,160.1
11,2022-03-14T09:00:00,2200.0,42.79,6.0312,0.034,-0.042,0.01,57.0,59.0,59.0,12.2,1504.3,131.1,-0.5,0.1,2192.882,13.17,0.054,141.0
11,2022-03-14T09:30:00,2200.0,42.79,6.0312,0.04,-0.04,0.014,56.0,61.0,62.0,12.2,1504.3,122.8,-0.3,-0.1,2192.855,13.17,0.056,135.0
11,2022-03-14T10:00:00,2200.0,42.79,6.0312,0.035,-0.04,0.0,56.0,58.0,62.0,12.2,1504.3,122.8,-0.5,-0.1,2192.821,13.17,0.053,138.8
11,2022-03-14T10:30:00,2200.0,42.79,6.0312,0.043,-0.042,0.021,57.0,60.0,60.0,12.2,1504.3,116.8,-0.5,0.1,2192.833,13.17,0.06,134.3
11,2022-03-14T11:00:00,2200.0,42.79,6.0312,0.047,-0.046,0.0,57.0,58.0,61.0,12.2,1504.3,114.3,-0.1,0.2,2192.843,13.17,0.065,134.4
11,2022-03-14T11:30:00,2200.0,42.79,6.0312,0.041,-0.039,0.004,56.0,59.0,60.0,12.2,1504.3,116.3,-0.3,0.2,2192.81,13.17,0.056,133.6
11,2022-03-14T12:00:00,2200.0,42.79,6.0312,0.024,-0.04,0.004,56.0,60.0,61.0,12.2,1504.3,118.6,-0.6,-0.1,2192.853,13.17,0.046,149.0
11,2022-03-14T12:30:00,2200.0,42.79,6.0312,0.038,-0.026,-0.004,56.0,57.0,59.0,12.2,1504.3,109.7,-0.2,-0.1,2192.825,13.17,0.046,124.4
11,2022-03-14T13:00:00,2200.0,42.79,6.0312,0.048,-0.032,0.014,55.0,59.0,63.0,12.2,1504.3,102.1,-0.2,0.0,2192.782,13.17,0.057,123.7
11,2022-03-14T13:30:00,2200.0,42.79,6.0312,0.033,-0.034,-0.008,56.0,58.0,59.0,12.2,1504.3,117.0,-0.6,0.2,2192.815,13.17,0.047,135.9
11,2022-03-14T14:00:00,2200.0,42.79,6.0312,0.029,-0.041,0.0,54.0,56.0,58.0,12.2,1504.3,115.3,-0.5,-0.1,2192.786,13.17,0.05,144.7
11,2022-03-14T14:30:00,2200.0,42.79,6.0312,0.028,-0.026,0.004,56.0,57.0,58.0,12.2,1504.3,108.6,-0.6,-0.1,2192.807,13.17,0.038,132.9
11,2022-03-14T15:00:00,2200.0,42.79,6.0312,0.02,-0.029,0.01,55.0,55.0,59.0,12.2,1504.3,108.5,-0.7,0.1,2192.859,13.17,0.035,145.4
11,2022-03-14T15:30:00,2200.0,42.79,6.0312,0.03,-0.036,0.002,54.0,57.0,59.0,12.2,1504.3,127.4,-0.2,0.0,2192.859,13.17,0.046,140.2
11,2022-03-14T16:00:00,2200.0,42.79,6.0312,0.03,-0.037,0.009,55.0,55.0,61.0,12.2,1504.3,125.3,-0.5,0.1,2192.878,13.17,0.047,141.0
11,2022-03-14T16:30:00,2200.0,42.79,6.0312,0.032,-0.03,0.009,55.0,58.0,58.0,12.2,1504.3,110.0,-0.2,0.3,2192.873,13.17,0.043,133.1
11,2022-03-14T17:00:00,2200.0,42.79,6.0312,0.046,-0.019,0.002,54.0,55.0,56.0,12.2,1504.3,108.5,-0.4,-0.1,2192.906,13.17,0.049,112.4
11,2022-03-14T17:30:00,2200.0,42.79,6.0312,0.036,-0.047,0.009,55.0,57.0,56.0,12.2,1504.3,119.9,-0.7,0.3,2192.926,13.17,0.059,142.5
11,2022-03-14T18:00:00,2200.0,42.79,6.0312,0.038,-0.028,0.011,54.0,54.0,57.0,12.2,1504.3,118.3,-0.7,0.0,2192.875,13.17,0.047,126.4
11,2022-03-14T18:30:00,2200.0,42.79,6.0312,0.031,-0.023,-0.002,52.0,55.0,59.0,12.2,1504.3,124.8,-0.4,-0.1,2192.933,13.17,0.038,126.6
11,2022-03-14T19:00:00,2200.0,42.79,6.0312,0.037,-0.03,0.007,53.0,55.0,57.0,12.2,1504.3,125.3,-0.3,-0.1,2192.915,13.17,0.047,129.0
11,2022-03-14T19:30:00,2200.0,42.79,6.0312,0.045,-0.027,0.013,51.0,54.0,55.0,12.2,1504.2,116.4,-0.2,-0.1,2192.861,13.16,0.052,121.0
11,2022-03-14T20:00:00,2200.0,42.79,6.0312,0.048,-0.028,0.006,53.0,54.0,57.0,12.2,1504.3,121.5,-0.3,-0.1,2192.831,13.17,0.055,120.3
11,2022-03-14T20:30:00,2200.0,42.79,6.0312,0.037,-0.031,0.008,54.0,55.0,56.0,12.2,1504.2,133.9,-0.5,0.1,2192.841,13.16,0.048,130.0
11,2022-03-14T21:00:00,2200.0,42.79,6.0312,0.032,-0.025,0.001,54.0,56.0,56.0,12.2,1504.3,121.7,-0.4,0.3,2192.837,13.17,0.04,128.0
